Weather History for KANJ - May, 2013

Change the Weather History Date:

Sunday, May 26, 2013

  Actual Average Record
Temperature  
Mean Temperature 52 °F 55 °F  
Max Temperature 66 °F 66 °F 86 °F (2010)
Min Temperature 37 °F 43 °F 24 °F (1969)
Degree Days  
Heating Degree Days 13 11  
Month to date heating degree days 338 364  
Since 1 July heating degree days 8186 8433  
Cooling Degree Days 0 0  
Month to date cooling degree days 0 0  
Year to date cooling degree days 0 0  
Moisture  
Dew Point 31 °F    
Average Humidity 51    
Maximum Humidity 79    
Minimum Humidity 23    
Precipitation  
Precipitation 0.00 in 0.09 in 1.73 in (1956)
Month to date precipitation 2.27 2.12  
Year to date precipitation 14.08 9.99  
Sea Level Pressure  
Sea Level Pressure 30.32 in    
Wind  
Wind Speed 5 mph (WNW)    
Max Wind Speed 14 mph    
Max Gust Speed 19 mph    
Visibility 10 miles    
Events      
T = Trace of Precipitation, MM = Missing Value Source: NWS Daily Summary

Daily Weather History Graph

Daily Weather History Graph

Search for Another Location

Airport or City:

Trip Planner

Search our weather history database for the weather conditions in past years. The results will help you decide how hot, cold, wet, or windy it might be!

Date:

Astronomy

May. 26, 2013 Rise Set
Actual Time 5:52 AM EDT 9:17 PM EDT
Civil Twilight 5:15 AM EDT 9:54 PM EDT
Nautical Twilight 4:26 AM EDT 10:43 PM EDT
Astronomical Twilight 3:23 AM EDT 11:47 PM EDT
Moon 11:01 PM EDT (5/26) 7:21 AM EDT (5/26)
Length of Visible Light 16h 39m
Length of Day
15h 24m
Waning Gibbous, 97% of the Moon is Illuminated
May 26
Waning Gibbous
May 31
Last Quarter
Jun 8
New
Jun 16
First Quarter
Jun 23
Full

Hourly Weather History & Observations

Time (EDT) Temp. Windchill Dew Point Humidity Pressure Visibility Wind Dir Wind Speed Gust Speed Precip Events Conditions
12:55 AM 41.0 °F 39.0 °F 32.0 °F 70% 30.34 in 10.0 mi West 3.5 mph - N/A   Clear
1:55 AM 42.1 °F - 32.0 °F 67% 30.33 in 10.0 mi Calm Calm - N/A   Clear
2:55 AM 39.9 °F 37.8 °F 34.0 °F 79% 30.35 in 10.0 mi NW 3.5 mph - N/A   Clear
3:55 AM 39.0 °F - 33.1 °F 79% 30.34 in 10.0 mi Calm Calm - N/A   Clear
4:55 AM 37.9 °F 35.5 °F 30.9 °F 76% 30.35 in 10.0 mi ENE 3.5 mph - N/A   Clear
5:55 AM 41.0 °F 39.0 °F 32.0 °F 70% 30.36 in 10.0 mi NE 3.5 mph - N/A   Clear
6:55 AM 41.0 °F - 33.1 °F 73% 30.39 in 10.0 mi Calm Calm - N/A   Clear
7:55 AM 46.9 °F - 35.1 °F 63% 30.38 in 10.0 mi ENE 4.6 mph - N/A   Clear
8:55 AM 53.1 °F - 30.9 °F 43% 30.37 in 10.0 mi ENE 4.6 mph - N/A   Clear
9:55 AM 55.9 °F - 28.9 °F 36% 30.39 in 10.0 mi Variable 3.5 mph - N/A   Clear
10:55 AM 59.0 °F - 30.0 °F 33% 30.37 in 10.0 mi Variable 3.5 mph - N/A   Clear
11:55 AM 60.1 °F - 30.9 °F 33% 30.36 in 10.0 mi Variable 3.5 mph - N/A   Clear
12:55 PM 62.1 °F - 30.0 °F 30% 30.35 in 10.0 mi North - - N/A   Clear
1:55 PM 64.0 °F - 28.9 °F 27% 30.32 in 10.0 mi SW 12.7 mph - N/A   Clear
2:55 PM 64.0 °F - 32.0 °F 30% 30.31 in 10.0 mi West 10.4 mph - N/A   Clear
3:55 PM 64.9 °F - 30.9 °F 28% 30.30 in 10.0 mi WNW 10.4 mph - N/A   Clear
4:55 PM 64.0 °F - 30.0 °F 28% 30.28 in 10.0 mi West 10.4 mph - N/A   Clear
5:55 PM 64.0 °F - 27.0 °F 25% 30.27 in 10.0 mi NW 9.2 mph - N/A   Clear
6:55 PM 63.0 °F - 25.0 °F 24% 30.26 in 10.0 mi WNW 8.1 mph - N/A   Clear
7:55 PM 61.0 °F - 25.0 °F 25% 30.25 in 10.0 mi NW 9.2 mph - N/A   Clear
8:55 PM 57.9 °F - 26.1 °F 30% 30.23 in 10.0 mi WNW 5.8 mph - N/A   Clear
9:55 PM 51.1 °F - 30.0 °F 44% 30.23 in 10.0 mi WSW 4.6 mph - N/A   Clear
10:55 PM 46.9 °F - 33.1 °F 59% 30.25 in 10.0 mi WSW 3.5 mph - N/A   Clear
11:55 PM 45.0 °F 42.6 °F 33.1 °F 63% 30.26 in 10.0 mi West 4.6 mph - N/A   Clear